This demonstration page uses our WeatherBlox Daily Observations layout. Learn more.

Left ArrowRight Arrow

Hourly Observations for May 29, 2020

Temp ( °F °C ) Dew Point ( °F °C ) Humidity (%) Winds ( mph kmh ) Pressure ( in mb ) Visibility ( mi km ) Precip ( " mm )
12:10 am 00:10 Cloudy 63 17.2 61 16.1 93 93 N 14 22 30.00 1016 10 16 0.00 0.00
12:37 am 00:37 Partly Cloudy 62 16.7 61 16.1 96 96 N 9 15 30.01 1016 10 16 0.00 0.00
12:52 am 00:52 Mostly Clear 62 16.7 60 15.6 93 93 NNE 8 13 30.00 1016 10 16 0.00 0.00
12:59 am 00:59 Mostly Clear 62 16.7 60 15.6 93 93 NNE 8 13 30.01 1016 10 16 0.00 0.00
1:52 am 01:52 Clear 58 14.4 58 14.4 100 100 N 6 9 30.01 1016 10 16 0.00 0.00
2:10 am 02:10 Mostly Clear 60 15.6 58 14.4 93 93 NW 6 9 30.01 1016 10 16 0.00 0.00
2:22 am 02:22 Mostly Cloudy 60 15.6 60 15.6 100 100 NW 6 9 30.01 1016 10 16 0.00 0.00
2:36 am 02:36 Cloudy 60 15.6 60 15.6 100 100 NW 8 13 30.01 1016 10 16 0.00 0.00
2:52 am 02:52 Cloudy 61 16.1 61 16.1 100 100 NNW 7 11 30.01 1016 10 16 0.00 0.00
3:33 am 03:33 Cloudy with Mist and Fog 60 15.6 60 15.6 100 100 NW 8 13 30.03 1017 2 3 0.00 0.00
3:52 am 03:52 Cloudy with Mist and Fog 60 15.6 60 15.6 100 100 NW 8 13 30.04 1017 1 2 0.00 0.00
4:28 am 04:28 Cloudy with Mist and Fog 59 15 59 15 100 100 NW 5 7 30.05 1018 2 3 0.00 0.00
4:43 am 04:43 Cloudy with Mist and Fog 59 15 59 15 100 100 NW 5 7 30.06 1018 5 8 0.00 0.00
4:52 am 04:52 Cloudy with Mist and Fog 59 15 59 15 100 100 NW 5 7 30.04 1017 4 6 0.00 0.00
5:52 am 05:52 Cloudy with Mist and Fog 59 15 59 15 100 100 NW 6 9 30.07 1018 3 4 0.00 0.00
6:05 am 06:05 Mostly Cloudy with Mist and Fog 59 15 59 15 100 100 NW 7 11 30.09 1019 1 2 0.00 0.00
6:38 am 06:38 Cloudy with Mist and Fog 59 15 59 15 100 100 NW 6 9 30.09 1019 3 5 0.00 0.00
6:52 am 06:52 Cloudy with Mist and Fog 59 15 59 15 100 100 NW 5 7 30.09 1019 3 5 0.00 0.00
7:52 am 07:52 Cloudy 62 16.7 61 16.1 96 96 NNW 5 7 30.09 1019 8 13 0.00 0.00
8:12 am 08:12 Cloudy 61 16.1 60 15.6 97 97 NW 5 7 30.09 1019 10 16 0.00 0.00
8:32 am 08:32 Partly Cloudy 64 17.8 60 15.6 87 87 Calm 30.09 1019 10 16 0.00 0.00
8:52 am 08:52 Sunny 65 18.3 60 15.6 84 84 WNW 5 7 30.11 1020 10 16 0.00 0.00
9:52 am 09:52 Partly Cloudy 68 20 61 16.1 78 78 WNW 6 9 30.11 1020 10 16 0.00 0.00
10:52 am 10:52 Sunny 70 21.1 60 15.6 71 71 NNW 12 19 30.13 1020 10 16 0.00 0.00
11:52 am 11:52 Sunny 72 22.2 56 13.3 57 57 N 16 26 30.14 1021 10 16 0.00 0.00
12:52 pm 12:52 Sunny 73 22.8 54 12.2 51 51 N 12 19 30.12 1020 10 16 0.00 0.00
1:52 pm 13:52 Sunny 74 23.3 53 11.7 48 48 N 9 15 30.12 1020 10 16 0.00 0.00
2:52 pm 14:52 Sunny 75 23.9 49 9.4 40 40 NW 12 19 30.11 1020 10 16 0.00 0.00
3:52 pm 15:52 Sunny 76 24.4 50 10 40 40 NNW 13 20 30.11 1020 10 16 0.00 0.00
4:52 pm 16:52 Sunny 75 23.9 48 8.9 39 39 NNW 14 22 30.11 1020 10 16 0.00 0.00
5:52 pm 17:52 Sunny 74 23.3 49 9.4 41 41 NNW 13 20 30.11 1020 10 16 0.00 0.00
6:52 pm 18:52 Sunny 72 22.2 49 9.4 44 44 NNW 9 15 30.12 1020 10 16 0.00 0.00
7:52 pm 19:52 Sunny 68 20 52 11.1 57 57 NNW 7 11 30.14 1021 10 16 0.00 0.00
8:52 pm 20:52 Clear 65 18.3 52 11.1 63 63 NNW 5 7 30.14 1021 10 16 0.00 0.00
9:52 pm 21:52 Clear 63 17.2 52 11.1 68 68 Calm 30.15 1021 10 16 0.00 0.00
10:52 pm 22:52 Clear 59 15 54 12.2 83 83 Calm 30.16 1021 10 16 0.00 0.00
11:52 pm 23:52 Clear 56 13.3 52 11.1 87 87 Calm 30.17 1022 10 16 0.00 0.00

Powered by AerisWeather